Regional Weather Roundup
Issued by NWS Bismarck, ND

Home | Current Version | Previous Version | Text Only | Print | Product List | Glossary On
Versions: 1 2 3 4 5 6 7 8 9 10 11 12 13 14 15 16 17 18 19 20 21 22 23 24 25 26 27 28 29 30 31 32 33 34 35 36 37 38 39 40 41 42 43 44 45 46 47 48 49 50
000
ASUS43 KBIS 220310
RWRBIS

NWR BROADCAST TEXT
NATIONAL WEATHER SERVICE BISMARCK ND
900 PM CST WED FEB 21 2018

NOTE: "FAIR" INDICATES FEW OR NO CLOUDS BELOW 12,000 FEET WITH NO
SIGNIFICANT WEATHER AND/OR OBSTRUCTIONS TO VISIBILITY.


CITY           SKY/WX    TMP DP  RH WIND       PRES   REMARKS
WILLISTON      FAIR       7  -4  60 S7        30.25F WCI  -5
MINOT          FAIR       5  -2  72 S8        30.32F WCI  -8
MINOT AFB      FAIR       1  -5  78 S8        30.32F WCI -14
BISMARCK       FAIR       3  -3  76 SE3       30.39S
DICKINSON      FAIR       2  -8  63 S14       30.21F WCI -16
GARRISON         N/A     -3  -7  82 SE7       30.33S WCI -16
HETTINGER ARPT FAIR      -4 -11  72 SE3       30.26S
JAMESTOWN      FAIR       0  -5  79 S8        30.44R WCI -14
CARRINGTON     FAIR      -2  -6  84 SE8       30.44R WCI -17
HAZEN            N/A     -4  -8  84 CALM      30.36S
LINTON           N/A      1  -8  66 SE12      30.41S WCI -15
MANDAN         MOCLDY     3  -6  66 S12       30.35F WCI -13
OAKES            N/A     -4  -8  84 S3        30.50F
RUGBY          FAIR       1  -4  78 S12       30.38F WCI -15
STANLEY        FAIR       3  -2  78 S10       30.28S WCI -12
TIOGA          FAIR       5   0  78 S14G20    30.24S WCI -12
WATFORD CITY   FAIR       3  -8  60 SE5       30.25S WCI  -6
$$

CITY           SKY/WX    TMP DP  RH WIND       PRES   REMARKS
GRAND FORKS    FAIR      -1  -5  82 S7        30.52S WCI -14
GRAND FORKS AF FAIR      -4  -9  78 SW6       30.51S WCI -16
DEVILS LAKE    FAIR      -6  -9  86 SE5       30.44S WCI -17
FARGO          FAIR       5  -2  72 S8        30.55R WCI  -8
CANDO          FAIR      -6  -9  84 SE7       30.43F WCI -20
CAVALIER         N/A      0  -6  78 CALM      30.49S
GRAFTON        FAIR       0  -6  78 S7        30.54R WCI -13
GWINNER          N/A     -4  -9  77 SW6       30.51F WCI -16
LANGDON        FAIR      -4  -8  84 S8        30.42S WCI -19
ROLLA          FAIR      -2  -6  84 SW13      30.37S WCI -21
WALHALLA       FAIR      -2  -8  78 CALM      30.48S
$$

CITY           SKY/WX    TMP DP  RH WIND       PRES   REMARKS
ABERDEEN       FAIR      -2  -6  83 SE7       30.49F WCI -15
MOBRIDGE       FAIR       4  -4  69 SE10      30.34F WCI -11
BUFFALO          N/A     -4 -10  75 SE9       30.12F WCI -20
RAPID CITY     FAIR       9   0  67 S12       30.19S WCI  -6
GLASGOW        FAIR      -8 -12  83 E12       30.16F WCI -27
SIDNEY         FAIR      -3 -10  72 CALM      30.25S
WOLF POINT     FAIR     -11 -16  78 CALM      30.23S
GLENDIVE       FAIR       0  -9  65 S7        30.20S WCI -13
MILES CITY     FAIR     -12 -16  82 NW6       30.16S WCI -26
BAKER          FAIR      -2  -8  76 SE16      30.17F WCI -23
$$

CITY           SKY/WX    TMP DP  RH WIND       PRES   REMARKS
BILLINGS       MOCLDY    15  -2  46 SW16      30.06S WCI  -1
GREAT FALLS    FAIR       6  -5  60 SW10      29.98S WCI  -9
$$




USA.gov is the U.S. government's official web portal to all federal, state and local government web resources and services.